Location: Caltech
(34.1382°N, 118.1253°W)
Time: 21:36:56
(UTC-07:00)

Oscar 19 - Visible Passes

Search period start: 02 September 2014 00:00
Search period end: 12 September 2014 00:00
Orbit: 775 x 790 km, 98.5° (Epoch: 01 September)

Date Brightness Start Highest point End Pass type
(mag) Time Alt. Az. Time Alt. Az. Time Alt. Az.
02 Sep 13.0 03:01:32 10° N 03:02:36 16° N 03:02:36 16° N visible
03 Sep 13.3 02:29:48 10° NNE 02:30:34 14° NNE 02:30:34 14° NNE visible
04 Sep 13.1 03:38:42 10° NNW 03:39:06 12° NNW 03:39:06 12° NNW visible
05 Sep 13.2 03:06:18 10° N 03:07:04 14° N 03:07:04 14° N visible
06 Sep 13.4 02:34:29 10° N 02:35:01 13° N 02:35:01 13° N visible
08 Sep 13.3 03:11:05 10° N 03:11:31 12° N 03:11:31 12° N visible
09 Sep 13.5 02:39:12 10° N 02:39:29 12° N 02:39:29 12° N visible
11 Sep 13.4 03:15:53 10° N 03:15:58 10° N 03:15:58 10° N visible
